Sie sind vermutlich noch nicht im Forum angemeldet - Klicken Sie hier um sich kostenlos anzumelden  
NOHAB-GM
Zurück zur Rundnasen-Homepage
Sie können sich hier anmelden
Dieses Board hat 618 Mitglieder
10.474 Beiträge & 3.919 Themen
Beiträge der letzten Tage
  Beiträge der letzten Tage  
   Betreff Absender Antworten Zugriffe Letzter Beitrag
1148 , 1147 und mehr in Padborg (Link zu DSO) vectrabaerchen 0 51 02.01.2019 14:44
628, 2251 NOHAB-Pappi 0 63 30.12.2018 09:47
[DK] I dag for 40 år siden NOHAB-Pappi 0 61 29.12.2018 07:22
NOHAB-GM hirlevel / Newsletter Nr. 114 [1 Attachment] NOHAB-Pappi 0 143 24.12.2018 14:18
Rundnasen am Balaton Teil 5 2000, das letzte Jahr (14 B.) Hans-Jürgen Warg 0 296 19.12.2018 11:07
Nohab fahren in Bernburg geht zuende MY 1127 2 220 16.12.2018 13:11
Fra Røros 8.12 NOHAB-Pappi 0 78 09.12.2018 09:24
Fahrpult für NOHAB's NOHAB-Pappi 2 130 04.12.2018 10:20
DI 3 642 i farta igjen NOHAB-Pappi 0 73 03.12.2018 09:21
Gibt es diesen Winter wieder Personenzüge mit Rundnasen in Schweden? nohbi 1 158 02.12.2018 19:08
[DK] DSB ME 1520 NOHAB-Pappi 0 56 02.12.2018 08:57
Rundnasen am Balaton Teil 4 1999 (13 B.) Hans-Jürgen Warg 0 208 02.12.2018 08:56
1155 MY 1127 1 137 28.11.2018 20:28
M17 in wording scale O, with DCC sound. NOHAB-Pappi 5 176 26.11.2018 12:09
[DK] MV 1102 med godstog i Esbjerg NOHAB-Pappi 2 91 23.11.2018 17:30
Rundnasen am Balaton Teil 3 1997/1998 (21 B.) Hans-Jürgen Warg 1 160 20.11.2018 08:17
Noch ein letztes mal 1149 auf der Marschbahn ölfuss 4 163 19.11.2018 15:28
NATO transport till Trident Juncture 18 NOHAB-Pappi 0 58 19.11.2018 07:54
Altmark Rail My 1155 Heute Mittag auf KBS 375 NOHAB-Fan Magdeburg 0 54 15.11.2018 21:41
Di 3 642 på tur igjen NOHAB-Pappi 0 49 15.11.2018 07:01
Die NoHAB My 1138 in Hannover Hbf (2 B.) NOHAB-Fan Magdeburg 0 41 11.11.2018 21:52
MY 1149 at Klanxbüll SimonTogDK 2 53 11.11.2018 10:24
MY 1149 at Klanxbüll (Video) SimonTogDK 0 35 11.11.2018 10:23
Rundnasenfahrt am 29. Dezember 2018 in Ungarn storniert roundnose 0 118 11.11.2018 08:48
Lidt fra Lersøen 1991 NOHAB-Pappi 0 48 09.11.2018 06:18
eine NOHAB im Leinetal NOHAB-Fan Magdeburg 0 49 08.11.2018 15:14
CLR MY 1138 Holz-Kutscher 0 50 07.11.2018 12:29
MY 1149 auf der Marschbahn ölfuss 1 160 06.11.2018 11:09
Rundnasen am Balaton Teil 2 1995/1996 (20 B.) Hans-Jürgen Warg 0 233 04.11.2018 08:33
Altmark Rail MY 1149 NOHAB-Fan Magdeburg 0 57 03.11.2018 22:57
[HR] Kroatiens Eisenbahn wird bunt... 3 Bilder NOHAB-Pappi 0 65 03.11.2018 08:00
MY 1158 with crane SimonTogDK 0 59 02.11.2018 18:33
Rundnasen am Balaton Teil 1 1990 - 1994 (20 B.) Hans-Jürgen Warg 3 231 28.10.2018 13:43
Gm power på Fryksdalsbanan NOHAB-Pappi 0 68 24.10.2018 20:18
Ældre billeder fra Nykøbing Sjælland på OHJ NOHAB-Pappi 0 74 22.10.2018 19:32
My1149 und 1155 MY 1127 0 147 17.10.2018 21:11
Gera / EBS NOHAB-Pappi 0 104 11.10.2018 07:54
MY 1135 in Taulov SimonTogDK 1 109 10.10.2018 08:42
Tschüss 1149 ölfuss 1 568 07.10.2018 11:10
Strabag-Nohab und Kran NOHAB-Fan Magdeburg 0 73 04.10.2018 15:35
Made MY Day - noch etwas 1149 in Husum ölfuss 1 261 03.10.2018 20:50
Was kommt denn da durchs Gebüsch? 1149 in Husum ölfuss 1 1.706 29.09.2018 22:20
Modell der 5216 Firma RIMA NOHAB-Pappi 3 13.971 26.09.2018 11:07
MY 1158 - Skanderborg und Ry SimonTogDK 0 74 24.09.2018 18:48
CFL Cargo på Thybanen! NOHAB-Pappi 0 85 19.09.2018 06:12
MY 1158 between Skanderborg and Ry SimonTogDK 0 81 13.09.2018 22:50
MZ 1459 with cargo from Aalborg SimonTogDK 0 67 11.09.2018 17:48
Fahrt nach Tapolca und zurück mit CLR 1138 und M61 017 NOHAB-Pappi 0 83 11.09.2018 08:07
150 Jahre MÁV Fahrt nach Szentendre NOHAB-Pappi 0 65 10.09.2018 08:35
[SE] NOHAB (NoHAB) PRODUKTKATALOG 1944 (PDF) NOHAB-Pappi 1 1.421 05.09.2018 07:10
Sonderzug Potsdam MY 1127 5 24.480 04.09.2018 21:28
MY 1126 Jutland trip - 19/08/2018 - Video SimonTogDK 0 52 03.09.2018 18:34
Mz IV von McK TMX_104 0 107 01.09.2018 14:39
MY 1126 Jutland trip - 19/08/2018 SimonTogDK 0 72 28.08.2018 21:34
NOHAB-GM hirlevel / Newsletter Nr. 112 NOHAB-Pappi 0 138 27.08.2018 22:03
150 Jahre MAV Sonderzüge mit M61 NOHAB-Pappi 1 3.962 27.08.2018 16:06
MY 1126 Jutland trip video SimonTogDK 1 114 26.08.2018 11:23
Sonderfahrt mit My 1126 Holz-Kutscher 0 81 23.08.2018 13:17
HO Sammlung - HO Collection JM GONSOLIN 3 8.474 23.08.2018 09:17
MY 1126 on Jutlands trip SimonTogDK 0 64 23.08.2018 06:42
CFL MY 1146 with ballast cleaning machine SimonTogDK 0 74 19.08.2018 19:34
[SE] Kiruna, tur med tog 93 og 99, del 4 - TMX x 2 NOHAB-Pappi 0 72 17.08.2018 08:04
MX 1023 + MX 1029 with ET SimonTogDK 0 58 16.08.2018 21:51
SNCB 5528 nachfolger AFB von 1961 5204 Lover 0 168 14.08.2018 18:02
SNCB 5205 mit schwebend Kabinen in Spontin Belgien 5204 Lover 0 189 14.08.2018 17:45
GM Gruppe Ungarn Sonderfahrt NOHAB-Pappi 0 142 10.08.2018 16:26
[RO]: Letzte Reise des letzten Rumänischen Königs Mihai I (Michael I) (m. L.) NOHAB-Pappi 0 99 05.08.2018 23:34
MX 1019 mit Bettungsreinigungsmaschine SimonTogDK 0 75 05.08.2018 15:20
3 602 plassert på en husvegg i Trollhättan. NOHAB-Pappi 0 96 31.07.2018 05:44
Retro-Wochenende am Balaton TMX_104 0 61 30.07.2018 16:23
Nächstes Wochenende: M61 und M62 am Balaton TMX_104 0 86 24.07.2018 06:36
Noen Di3 bilder fra Flesberg! NOHAB-Pappi 0 94 23.07.2018 06:38
MX 1019 at Handest SimonTogDK 0 64 22.07.2018 20:15
Video of MY 1134 and MX 1008 with Weedfree on track SimonTogDK 0 60 22.07.2018 08:56
MY 1134 + MX 1008 with Weedfree on track - Struer SimonTogDK 0 67 20.07.2018 17:21
 Sprung Seite 1  2  3  4  5 - 49  weiter »
NOHAB-GM
Xobor Forum Software von Xobor
Einfach ein eigenes Forum erstellen